SWIFT

Last updated on Sun Apr 12 2026 00:02:44 GMT+0000 (Coordinated Universal Time)

1 28485U 04047A 26101.33194514 .00037759 00000+0 39530-3 0 9995 2 28485 20.5545 338.2101 0002688 85.3576 274.7176 15.62510453176376
UTC large
Height (km)
Speed (km/s)
/
Latitude / Longitude
Inclination (degrees)
Orbital Period (minutes)
Azimuth
Elevation
Range (km)
Doppler Factor

Next 0 passes for location: London (51.5072 / 0.1276)

Sorry there are no passes over London.
SWIFT